Flag for Philippines Weather past 2 weeks in Zamboanga City, Philippines

Now
84 °F

Partly sunny.


Feels Like: 96 °F
Forecast: 81 / 86 °F
Wind: 7 mph from Southwest

Location: Zamboanga

Current Time: Jul 4, 2015 at 10:02:48 AM

Latest Report: Jul 4, 2015 at 9:00 AM


Visibility: N/A

Pressure: 29.83 "Hg

Humidity: 84%

Dew point: 79 °F

Location of Zamboanga CityLocation

Historic Weather in Zamboanga City — Graph

°F

Zamboanga City temperature yesterday

Maximum temperature yesterday: 86 °F (at 1:00 PM)
Minimum temperature yesterday: 73 °F (at 5:00 AM)
Average temperature yesterday: 82 °F

Past Weeks' High & Low Weather Summary

 TemperatureHumidityPressure
High93 °F (Jun 21, 12:00 PM)100% (Jun 20, 6:00 AM)30.01 "Hg (Jun 20, 6:00 AM)
Low73 °F (Jun 27, 6:00 AM)63% (Jun 22, 1:00 PM)29.77 "Hg (Jul 3, 4:00 PM)
Average82 °F85%29.89 "Hg
* Reported Jun 19 9:00 AM — Jul 4 9:00 AM, Zamboanga City, Weather by CustomWeather, © 2015

Note: Actual official high and low records may vary slightly from our data, if they occured in-between our weather recording intervals... More about our weather records

Advertising

Zamboanga City weather history for previous 24 hours

 ConditionsComfort  
Time TempWeatherWind HumidityBarometerVisibility
9:00 AM
Sat, Jul 4
84 °FPartly sunny.7 mph84%29.83 "HgN/A
8:00 AM82 °FOvercast.5 mph84%29.83 "HgN/A
6:00 AM81 °FMore clouds than sun.2 mph89%29.80 "Hg5 mi
5:00 AM81 °FMostly cloudy.2 mph89%29.80 "HgN/A
2:00 AM79 °FOvercast.5 mph94%29.80 "HgN/A
11:00 PM
Fri, Jul 3
79 °FOvercast.No wind89%29.83 "HgN/A
8:00 PM82 °FPartly cloudy.5 mph89%29.83 "Hg5 mi
6:00 PM84 °FBroken clouds.5 mph84%29.80 "Hg5 mi
5:00 PM86 °FPartly sunny.7 mph79%29.77 "Hg4 mi
4:00 PM86 °FScattered clouds.5 mph79%29.77 "Hg5 mi
3:00 PM84 °FMore clouds than sun.7 mph84%29.80 "Hg6 mi
2:00 PM86 °FSprinkles. Scattered clouds.5 mph79%29.83 "Hg4 mi
1:00 PM86 °FMore clouds than sun.5 mph79%29.83 "Hg5 mi
12:00 PM84 °FBroken clouds.5 mph79%29.86 "HgN/A
11:00 AM84 °FBroken clouds.7 mph79%29.86 "HgN/A
10:00 AM81 °FMore clouds than sun.5 mph84%29.86 "HgN/A
Weather by CustomWeather, © 2015

See weather overviewHow to use our weather pages